Yorktown, IN (47396)

1:42 PM EDT on May 25, 2017 (GMT -0400)
| | Change Station
Active Advisory: Flood Warning

Elev -9999 ft 0.00 °N, 0.00 °E | Updated 1 minute ago

Rain
Rain
°F
Feels Like °F
N
Wind Variable Wind from North
Gusts mph

Today
High -- | Low -- °F
--% Chance of Precip.
Yesterday
High -- | Low -- °F
Precip. -- in
Pressure 29.50 in
Visibility 5.0 miles
Clouds Overcast 800 ft
Dew Point Not available.
Humidity Not available.
Rainfall --
Snow Depth Not available.
6:18 AM 9:00 PM
Waning Crescent, 0% visible
METAR KMIE 251653Z 32014KT 5SM -RA BR OVC008 17/14 A2952 RMK AO2 RAE02B36 CIG 006V013 SLP990 T01670144 PNO $
Pressure 29.50 in
Visibility 5.0 miles
Clouds Overcast 800 ft
Dew Point Not available.
Humidity Not available.
Rainfall --
Snow Depth Not available.
6:18 AM 9:00 PM
Waning Crescent, 0% visible
METAR KMIE 251653Z 32014KT 5SM -RA BR OVC008 17/14 A2952 RMK AO2 RAE02B36 CIG 006V013 SLP990 T01670144 PNO $

Get Your Daily Forecast Email!

Thanks for signing up!

Be on the lookout for a verification email in your inbox.

You'll start receiving severe weather alerts in your inbox..

×

10-Day Weather Forecast

Almanac

Astronomy

May. 25, 2017 Rise Set
Actual Time
Civil Twilight
Nautical Twilight
Astronomical Twilight
Moon
Length of Visible Light
Length of Day
Tomorrow will be .
, % of the Moon is Illuminated

Today's Extremes

State Highs State Lows

Community

WunderPhotos

Category 6

Welcome to Category 6. This is the collective home for Weather Underground's featured writeups by Dr. Jeff Masters (right), Bob Henson (left), Chris Burt, and other regular contributors.

Nearby

Air Quality

  Air Quality AQ Index Pollutant
Not available.

Snow Depth

Station Depth Elevation

Earthquake Activity

City Distance Mag. Time & Date
Minimum magnitude displayed is 2.5.

Coastal Water Temperatures

Place Temperature

Stations

Nearby Weather Stations

Station Location Temp. Windchill Dew Point Humidity Wind Precip. Elev Updated Type
                   

Watches & Warnings

Flood Warning
Issued: 8:09 AM EDT May. 25, 2017 – National Weather Service

The National Weather Service in Indianapolis has issued a

* Flood Warning for
the mississinewa river near Ridgeville.
* Until further notice.
* At 7:30 am Thursday the stage was 12.0 feet.
* Flood stage is 11.0 feet.
* The river was at crest and will begin to fall later today.
* At 11.5 feet... water on The Shoulder and edge of sr 1 south of the
Junction with sr 28 in western Randolph County.


Lat... Lon 4026 8496 4024 8528 4038 8551 4041 8543
      4030 8527 4029 8495